Regional Weather Roundup
Issued by NWS State College, PA

Home | Current Version | Previous Version | Text Only | Print | Product List | Glossary On
Versions: 1 2 3 4 5 6 7 8 9 10 11 12 13 14 15 16 17 18 19 20 21 22 23 24 25 26 27 28 29 30 31 32 33 34 35 36 37 38 39 40 41 42 43 44 45 46 47 48 49 50
000
ASUS41 KCTP 291710
RWRCTP

REGIONAL WEATHER ROUNDUP
NATIONAL WEATHER SERVICE STATE COLLEGE PA
100 PM EDT FRI APR 29 2016

Note: "fair" indicates few or no clouds below 12,000 feet with no
significant weather and/or obstructions to visibility.

* = STATION THAT DOES NOT REPORT PRECIPITATION /E.G. RAIN...SNOW...ETC/
    THUNDER OR FOG.

PAZ002>004-007>009-013>016-020>023-029>032-291800-
WESTERN PENNSYLVANIA

CITY           SKY/WX    TMP DP  RH WIND       PRES   REMARKS
ERIE           CLOUDY    46  34  62 NE7       30.03R
MEADVILLE      LGT RAIN  45  44  97 W5        29.99R
FRANKLIN*      CLOUDY    46  43  87 CALM      30.02R
NEW CASTLE     NOT AVBL
BEAVER COUNTY  CLOUDY    50  46  87 SW7       30.00S
BUTLER*        CLOUDY    48  46  93 SW8       30.02S
PITTSBURGH INT CLOUDY    54  48  80 W7        29.98F
PITTSBURGH     CLOUDY    54  49  83 W9        29.98S
INDIANA*       CLOUDY    52  50  93 W8        30.02R FOG
LATROBE        CLOUDY    54  54 100 SW7       30.01R FOG
WASHINGTON CO* CLOUDY    55  48  76 SW14      29.99F
$$

PAZ004>006-010>012-017>019-024>028-033>037-041-042-045-046-049>053-291800-
CENTRAL PENNSYLVANIA

CITY           SKY/WX    TMP DP  RH WIND       PRES   REMARKS
BRADFORD       CLOUDY    44  42  93 E7        29.97F FOG
DUBOIS         CLOUDY    45  43  93 S5        29.98R FOG
CLEARFIELD     CLOUDY    46  43  89 CALM      30.00R FOG
JOHNSTOWN      CLOUDY    50  45  83 S8        29.97R HAZE
ALTOONA        CLOUDY    46  44  93 S8        30.02R FOG
STATE COLLEGE  CLOUDY    45  43  93 SE7       30.01F FOG
WILLIAMSPORT   CLOUDY    49  36  61 SE8G22    30.04F
SELINSGROVE    CLOUDY    48  39  71 SE6       30.05F
FT INDIANTOWN  CLOUDY    48  40  74 E7        30.06F
CAPITAL CITY   CLOUDY    48  44  86 E12       30.05F
HARRISBURG     CLOUDY    49  43  80 SE10      30.05F
YORK           CLOUDY    48  45  89 E8        30.05F
$$

PAZ038>040-043-044-047-048-054-055-060>062-067>071-291800-
EASTERN PENNSYLVANIA

CITY           SKY/WX    TMP DP  RH WIND       PRES   REMARKS
SCRANTON       CLOUDY    54  35  48 E8        30.03F
MOUNT POCONO   CLOUDY    46  29  51 E12       30.04F
ALLENTOWN      CLOUDY    54  33  45 SE10G20   30.07F
QUAKERTOWN*    CLOUDY    50  37  62 E10       30.08F
READING        LGT RAIN  50  41  71 E8        30.06F
LANCASTER      CLOUDY    49  44  83 E9        30.05F
COATESVILLE    CLOUDY    48  46  93 SE10G17   30.06F
POTTSTOWN      CLOUDY    51  39  63 VRB6      30.08F
BLUE BELL      CLOUDY    50  37  62 E7        30.07F
DOYLESTOWN     CLOUDY    50  33  52 VRB5      30.07F
WILLOW GROVE   NOT AVBL
NORTH PHILA    CLOUDY    54  37  52 E12       30.09F
PHILADELPHIA   CLOUDY    53  40  61 E9        30.08F
$$




USA.gov is the U.S. government's official web portal to all federal, state and local government web resources and services.